Location: ????????
(60.4333°N, 46.4710°E)
Time: 03:26:11
(UTC+00:00)

Cosmos 2221 - Pass Details

Date: 25 November 2020
Orbit: 593 x 615 km, 82.5° (Epoch: 19 January)

Event Time Altitude Azimuth Distance (km) Brightness Sun altitude
Rises 13:24:09 0° 171° (S) 2,865 6.2 -9.1°
Reaches altitude 10° 13:26:26 10° 165° (SSE) 1,961 5.3 -9.3°
Maximum altitude 13:30:32 43° 94° (E) 862 2.9 -9.8°
Drops below altitude 10° 13:34:38 10° 23° (NNE) 1,962 4.7 -10.3°
Enters shadow 13:35:47 - 20° (NNE) 2,408 5.2 -10.4°
